Flint, MI

9:47 PM EST on November 22, 2017 (GMT -0500)
Bishop International

Weather History for KFNT - October, 2010

Change the Weather History Date:

Sunday, October 24, 2010

  Actual Average Record
Temperature  
Mean Temperature 63 °F 47 °F  
Max Temperature 73 °F 56 °F 81 °F (1963)
Min Temperature 52 °F 37 °F 22 °F (1981)
Degree Days  
Heating Degree Days 2 18  
Month to date heating degree days 305 350  
Since 1 July heating degree days 458 560  
Cooling Degree Days 0 0  
Month to date cooling degree days 0 2  
Year to date cooling degree days 861 528  
Growing Degree Days 13 (Base 50)    
Moisture  
Dew Point 48 °F    
Average Humidity 63    
Maximum Humidity 89    
Minimum Humidity 37    
Precipitation  
Precipitation 0.07 in 0.07 in 1.04 in (2001)
Month to date precipitation 1.72 1.94  
Year to date precipitation 21.73 26.25  
Snow  
Snow 0.00 in 0.00 in T in (2006)
Month to date snowfall 0.0 0.3  
Since 1 July snowfall 0.0 0.3  
Since 1 September snowfall 0.0 0.3  
Snow Depth 0.00 in    
Sea Level Pressure  
Sea Level Pressure 29.85 in    
Wind  
Wind Speed 9 mph (SSW)    
Max Wind Speed 22 mph    
Max Gust Speed 28 mph    
Visibility 10 miles    
Events Rain    
T = Trace of Precipitation, MM = Missing Value Source: NWS Daily Summary

Daily Weather History Graph

Daily Weather History Graph

Search for Another Location

Airport or City:

Trip Planner

Search our weather history database for the weather conditions in past years. The results will help you decide how hot, cold, wet, or windy it might be!

Date:

Astronomy

Oct. 24, 2010 Rise Set
Actual Time 7:59 AM EDT 6:38 PM EDT
Civil Twilight 7:30 AM EDT 7:07 PM EDT
Nautical Twilight 6:57 AM EDT 7:40 PM EDT
Astronomical Twilight 6:24 AM EDT 8:13 PM EDT
Moon 7:14 PM EDT (10/24) 9:44 AM EDT (10/24)
Length of Visible Light 11h 36m
Length of Day
10h 38m
Full, 97% of the Moon is Illuminated
Oct 24
Full
Oct 30
Last Quarter
Nov 6
New
Nov 13
First Quarter
Nov 21
Full

Hourly Weather History & Observations

Time (EDT) Temp. Dew Point Humidity Pressure Visibility Wind Dir Wind Speed Gust Speed Precip Events Conditions
12:53 AM 60.1 °F 39.9 °F 47% 29.96 in 10.0 mi SW 8.1 mph - N/A   Partly Cloudy
1:53 AM 60.1 °F 39.9 °F 47% 29.94 in 10.0 mi SSW 6.9 mph - N/A   Clear
2:53 AM 61.0 °F 39.0 °F 44% 29.93 in 10.0 mi SSW 9.2 mph - N/A   Overcast
3:53 AM 57.0 °F 45.0 °F 64% 29.97 in 10.0 mi WNW 8.1 mph - 0.01 in Rain Light Rain
4:53 AM 54.0 °F 48.9 °F 83% 29.97 in 9.0 mi Calm Calm - 0.01 in Rain Light Rain
5:53 AM 53.1 °F 50.0 °F 89% 29.96 in 10.0 mi SSE 4.6 mph - 0.05 in Rain Light Rain
6:53 AM 54.0 °F 48.9 °F 83% 29.96 in 10.0 mi South 5.8 mph - 0.00 in   Overcast
7:53 AM 53.1 °F 48.0 °F 83% 29.94 in 10.0 mi South 9.2 mph - N/A   Partly Cloudy
8:53 AM 55.0 °F 46.9 °F 74% 29.94 in 10.0 mi South 9.2 mph - N/A   Scattered Clouds
9:53 AM 57.0 °F 45.0 °F 64% 29.94 in 10.0 mi South 6.9 mph - N/A   Clear
10:53 AM 61.0 °F 45.0 °F 56% 29.88 in 10.0 mi South 10.4 mph - 0.00 in   Clear
11:53 AM 66.9 °F 43.0 °F 42% 29.88 in 10.0 mi SSW 12.7 mph - N/A   Clear
12:53 PM 69.1 °F 43.0 °F 39% 29.86 in 10.0 mi South 9.2 mph - N/A   Partly Cloudy
1:53 PM 70.0 °F 43.0 °F 38% 29.83 in 10.0 mi South 13.8 mph 24.2 mph N/A   Partly Cloudy
2:53 PM 71.1 °F 46.0 °F 41% 29.79 in 10.0 mi South 16.1 mph 25.3 mph 0.00 in   Partly Cloudy
3:53 PM 73.0 °F 48.0 °F 41% 29.77 in 10.0 mi SSW 13.8 mph - N/A   Mostly Cloudy
4:53 PM 72.0 °F 51.1 °F 48% 29.76 in 10.0 mi SSW 10.4 mph - N/A   Clear
5:53 PM 71.1 °F 50.0 °F 47% 29.76 in 10.0 mi SSW 9.2 mph 19.6 mph N/A   Partly Cloudy
6:53 PM 66.9 °F 51.1 °F 57% 29.75 in 10.0 mi South 5.8 mph - N/A   Mostly Cloudy
7:53 PM 66.9 °F 53.1 °F 61% 29.75 in 10.0 mi South 10.4 mph - N/A   Scattered Clouds
8:53 PM 66.9 °F 55.0 °F 66% 29.75 in 10.0 mi South 9.2 mph - N/A   Clear
9:53 PM 64.9 °F 55.0 °F 70% 29.73 in 10.0 mi South 11.5 mph 18.4 mph N/A   Clear
10:53 PM 64.9 °F 55.9 °F 73% 29.73 in 10.0 mi SSW 10.4 mph - N/A   Scattered Clouds
11:53 PM 64.0 °F 55.9 °F 75% 29.71 in 10.0 mi South 5.8 mph - N/A   Overcast